Weather History for Defuniak Springs, Defuniak Sp, FL

Change the Weather History Date:

Thursday, February 27, 2014

  Actual Average (KCEW) Record (KCEW)
Temperature  
Mean Temperature 42 °F -  
Max Temperature 52 °F 67 °F 83 °F (1981)
Min Temperature 32 °F 40 °F 21 °F (2002)
Degree Days  
Heating Degree Days 23    
Moisture  
Dew Point 24 °F    
Average Humidity 55    
Maximum Humidity 85    
Minimum Humidity 26    
Precipitation  
Precipitation 0.00 in - - ()
Sea Level Pressure  
Sea Level Pressure 30.01 in    
Wind  
Wind Speed 9 mph (NNW)    
Max Wind Speed 15 mph    
Max Gust Speed 22 mph    
Visibility 10 miles    
Events      
Averages and records for this station are not official NWS values.
T = Trace of Precipitation, MM = Missing Value Source: NWS Daily Summary

Daily Weather History Graph

Daily Weather History Graph

Search for Another Location

Airport:

Trip Planner

Search our weather history database for the weather conditions in past years. The results will help you decide how hot, cold, wet, or windy it might be!

Date:

Astronomy

Feb. 27, 2014 Rise Set
Actual Time 6:13 AM CST 5:41 PM CST
Civil Twilight 5:48 AM CST 6:06 PM CST
Nautical Twilight 5:20 AM CST 6:34 PM CST
Astronomical Twilight 4:53 AM CST 7:02 PM CST
Moon 4:40 AM CST (2/27) 4:10 PM CST (2/27)
Length of Visible Light 12h 17m
Length of Day
11h 28m
Waning Crescent, 4% of the Moon is Illuminated
Feb 27
Waning Crescent
Mar 1
New
Mar 8
First Quarter
Mar 16
Full
Mar 23
Last Quarter

Hourly Weather History & Observations

Time (CST) Temp. Windchill Dew Point Humidity Pressure Visibility Wind Dir Wind Speed Gust Speed Precip Events Conditions
12:15 AM 38.7 °F 31.4 °F 30.0 °F 71% 29.99 in 10.0 mi NNW 11.5 mph 17.3 mph N/A   Clear
12:35 AM 38.7 °F 32.4 °F 30.0 °F 71% 29.98 in 10.0 mi North 9.2 mph - N/A   Clear
12:55 AM 38.3 °F 31.4 °F 30.2 °F 73% 29.97 in 10.0 mi NNW 10.4 mph - N/A   Clear
1:15 AM 38.3 °F 32.5 °F 29.8 °F 72% 29.97 in 10.0 mi North 8.1 mph - N/A   Clear
1:35 AM 38.1 °F 31.7 °F 29.7 °F 72% 29.97 in 10.0 mi North 9.2 mph - N/A   Clear
1:55 AM 37.9 °F 31.5 °F 29.5 °F 72% 29.97 in 10.0 mi NNW 9.2 mph - N/A   Clear
2:15 AM 37.8 °F 30.2 °F 29.7 °F 73% 29.97 in 10.0 mi North 11.5 mph 17.3 mph N/A   Clear
2:35 AM 37.4 °F 30.3 °F 29.7 °F 74% 29.96 in 10.0 mi North 10.4 mph - N/A   Clear
2:55 AM 37.4 °F 29.8 °F 29.5 °F 73% 29.97 in 10.0 mi NNW 11.5 mph 17.3 mph N/A   Clear
3:15 AM 37.0 °F 28.9 °F 29.5 °F 74% 29.98 in 10.0 mi NNW 12.7 mph - N/A   Clear
3:35 AM 36.7 °F 29.9 °F 29.3 °F 75% 29.98 in 10.0 mi North 9.2 mph - N/A   Clear
3:55 AM 36.7 °F 29.4 °F 28.8 °F 73% 29.98 in 10.0 mi North 10.4 mph 16.1 mph N/A   Clear
4:15 AM 36.5 °F 28.7 °F 27.3 °F 69% 29.99 in 10.0 mi NNW 11.5 mph 17.3 mph N/A   Clear
4:35 AM 36.1 °F 28.7 °F 26.6 °F 68% 30.00 in 10.0 mi NNW 10.4 mph - N/A   Clear
4:55 AM 35.8 °F 29.4 °F 26.4 °F 69% 30.00 in 10.0 mi North 8.1 mph - N/A   Clear
5:15 AM 35.6 °F 27.5 °F 25.3 °F 66% 30.01 in 10.0 mi North 11.5 mph - N/A   Clear
5:35 AM 34.9 °F 27.7 °F 25.0 °F 67% 30.02 in 10.0 mi North 9.2 mph - N/A   Clear
5:55 AM 34.3 °F 27.0 °F 25.0 °F 69% 30.02 in 10.0 mi North 9.2 mph - N/A   Clear
6:15 AM 33.8 °F 25.8 °F 25.2 °F 71% 30.03 in 10.0 mi North 10.4 mph - N/A   Clear
6:35 AM 33.3 °F 26.4 °F 25.0 °F 72% 30.03 in 10.0 mi North 8.1 mph - N/A   Clear
6:55 AM 32.9 °F 24.7 °F 24.4 °F 71% 30.03 in 10.0 mi North 10.4 mph - N/A   Clear
7:15 AM 33.1 °F 24.9 °F 23.0 °F 66% 30.05 in 10.0 mi North 10.4 mph - N/A   Clear
7:30 AM 33.1 °F 25.5 °F 21.4 °F 62% 30.05 in 10.0 mi North 9.2 mph - N/A   Clear
7:55 AM 35.1 °F 26.4 °F 22.8 °F 61% 30.05 in 10.0 mi North 12.7 mph - N/A   Clear
8:15 AM 35.8 °F 26.9 °F 19.0 °F 51% 30.05 in 10.0 mi North 13.8 mph 21.9 mph N/A   Clear
8:35 AM 36.7 °F 27.6 °F 17.2 °F 45% 30.05 in 10.0 mi NNE 15.0 mph 18.4 mph N/A   Clear
8:55 AM 38.1 °F 31.2 °F 18.5 °F 45% 30.05 in 10.0 mi NNW 10.4 mph - N/A   Clear
9:15 AM 39.0 °F 31.8 °F 17.2 °F 41% 30.05 in 10.0 mi North 11.5 mph 17.3 mph N/A   Clear
9:35 AM 40.3 °F 33.9 °F 16.7 °F 39% 30.05 in 10.0 mi NNE 10.4 mph - N/A   Clear
9:55 AM 41.4 °F 36.8 °F 17.6 °F 38% 30.06 in 10.0 mi NNE 6.9 mph 17.3 mph N/A   Clear
10:15 AM 41.9 °F 36.9 °F 15.6 °F 35% 30.05 in 10.0 mi North 8.1 mph - N/A   Clear
10:35 AM 43.3 °F 38.6 °F 16.3 °F 34% 30.05 in 10.0 mi North 8.1 mph - N/A   Clear
10:55 AM 45.0 °F 39.3 °F 17.8 °F 34% 30.04 in 10.0 mi North 11.5 mph - N/A   Clear
11:15 AM 46.6 °F - 17.8 °F 32% 30.04 in 10.0 mi NNW 10.4 mph 16.1 mph N/A   Clear
11:35 AM 46.8 °F - 16.7 °F 30% 30.03 in 10.0 mi NNE 12.7 mph 19.6 mph N/A   Clear
11:55 AM 47.5 °F - 18.0 °F 31% 30.03 in 10.0 mi NNE 9.2 mph - N/A   Clear
12:15 PM 47.8 °F - 17.4 °F 30% 30.02 in 10.0 mi North 10.4 mph - N/A   Clear
12:35 PM 48.7 °F - 19.0 °F 31% 30.01 in 10.0 mi North 6.9 mph - N/A   Clear
12:55 PM 49.6 °F - 18.3 °F 29% 30.01 in 10.0 mi North 4.6 mph - N/A   Clear
1:15 PM 50.4 °F - 18.7 °F 29% 30.00 in 10.0 mi NW 10.4 mph - N/A   Clear
1:35 PM 50.5 °F - 18.3 °F 28% 29.99 in 10.0 mi NNW 6.9 mph - N/A   Clear
1:55 PM 52.0 °F - 19.2 °F 28% 29.99 in 10.0 mi North 8.1 mph - N/A   Clear
2:15 PM 51.3 °F - 17.6 °F 26% 29.99 in 10.0 mi Calm Calm - N/A   Clear
2:35 PM 51.4 °F - 18.0 °F 27% 29.98 in 10.0 mi NW 4.6 mph - N/A   Clear
2:55 PM 51.8 °F - 19.0 °F 28% 29.98 in 10.0 mi North 3.5 mph - N/A   Clear
3:15 PM 52.0 °F - 19.4 °F 28% 29.98 in 10.0 mi NW 5.8 mph - N/A   Clear
3:35 PM 52.0 °F - 19.0 °F 27% 29.98 in 10.0 mi NW 8.1 mph - N/A   Clear
3:55 PM 52.3 °F - 19.2 °F 27% 29.97 in 10.0 mi WNW 8.1 mph - N/A   Clear
4:15 PM 52.7 °F - 19.8 °F 27% 29.96 in 10.0 mi North 8.1 mph - N/A   Clear
4:35 PM 52.5 °F - 19.8 °F 28% 29.97 in 10.0 mi NNW 5.8 mph - N/A   Clear
4:55 PM 51.8 °F - 20.3 °F 29% 29.97 in 10.0 mi North 6.9 mph - N/A   Clear
5:15 PM 50.7 °F - 21.0 °F 31% 29.97 in 10.0 mi NNW 4.6 mph - N/A   Clear
5:35 PM 48.7 °F - 22.8 °F 36% 29.98 in 10.0 mi NNW 4.6 mph - N/A   Clear
5:55 PM 46.2 °F - 25.2 °F 44% 29.98 in 10.0 mi Calm Calm - N/A   Clear
6:15 PM 41.9 °F - 29.5 °F 61% 29.99 in 10.0 mi Calm Calm - N/A   Clear
6:35 PM 43.5 °F - 25.7 °F 50% 30.00 in 10.0 mi Calm Calm - N/A   Clear
6:55 PM 43.0 °F - 26.8 °F 53% 30.00 in 10.0 mi Calm Calm - N/A   Clear
7:15 PM 41.2 °F 39.2 °F 30.4 °F 65% 30.00 in 10.0 mi NW 3.5 mph - N/A   Clear
7:35 PM 41.5 °F - 29.8 °F 63% 30.01 in 10.0 mi Calm Calm - N/A   Clear
7:55 PM 41.2 °F - 27.5 °F 58% 30.02 in 10.0 mi Calm Calm - N/A   Clear
8:15 PM 36.9 °F 33.1 °F 30.6 °F 78% 30.02 in 10.0 mi NW 4.6 mph - N/A   Clear
8:35 PM 39.6 °F 36.3 °F 28.2 °F 64% 30.03 in 10.0 mi NNW 4.6 mph - N/A   Clear
8:55 PM 39.2 °F 35.0 °F 28.4 °F 65% 30.03 in 10.0 mi NW 5.8 mph - N/A   Clear
9:15 PM 37.4 °F 33.8 °F 30.2 °F 75% 30.03 in 10.0 mi NNW 4.6 mph - N/A   Clear
9:35 PM 37.9 °F 34.4 °F 30.0 °F 73% 30.04 in 10.0 mi NNW 4.6 mph - N/A   Clear
9:55 PM 36.5 °F 32.7 °F 29.7 °F 76% 30.04 in 10.0 mi NNW 4.6 mph - N/A   Clear
10:15 PM 36.9 °F 33.1 °F 29.8 °F 76% 30.04 in 10.0 mi NNW 4.6 mph - N/A   Clear
10:35 PM 36.5 °F 32.7 °F 29.1 °F 75% 30.04 in 10.0 mi NNW 4.6 mph - N/A   Clear
10:55 PM 36.5 °F 31.8 °F 28.8 °F 74% 30.05 in 10.0 mi NNW 5.8 mph - N/A   Clear
11:15 PM 35.4 °F 31.5 °F 29.7 °F 80% 30.04 in 10.0 mi NNW 4.6 mph - N/A   Clear
11:35 PM 33.8 °F 29.6 °F 29.3 °F 84% 30.03 in 10.0 mi NNW 4.6 mph - N/A   Clear
11:55 PM 34.0 °F 29.8 °F 29.8 °F 85% 30.04 in 10.0 mi NNW 4.6 mph - N/A   Clear